Terug naar catalogus

ATLAS 2AS CENTAUR R/B

ActiefHEO
NORAD 26072·ROCKET BODY·🇺🇸 United States

Gelanceerd Feb 3, 2000 vanaf Cape Canaveral Space Force Station

Loading…

Volgende Passages (komende 24 uur)

TLE

VersSource: Space-Track

Epoch: Sep 14, 2026, 08:46 UTC

1 26072U 00007B   26257.36580632  .00031215  00000-0  83198-3 0  9993
2 26072  18.0739 325.0413 3033471  34.0568 342.1871  9.35227962364860

Volg ATLAS 2AS CENTAUR R/B in realtime met AllMySat

Download on the App Store